Location: Allington
(51.1500°N, 1.7000°W)
Time: 07:54:36
(UTC+00:00)

Daily predictions for brighter satellites

Satellite Brightness Start Highest point End
(mag) Time Altitude Azimuth Time Altitude Azimuth Time Altitude Azimuth
Cosmos 2285 Rocket 4.1 17:36:19 10° NNW 17:42:49 83° ENE 17:49:14 10° SSE
Cosmos 724 4.5 17:37:10 10° SSW 17:43:13 62° ESE 17:49:09 10° NE
Unknown 4.1 17:41:14 10° SW 17:45:13 48° SSE 17:49:13 10° ENE
Cosmos 839 Rocket 4.2 17:39:32 10° NW 17:45:38 60° NE 17:52:14 10° SE
Cosmos 1461 4.2 17:44:46 10° NNW 17:48:05 24° NNE 17:51:28 10° E
Unknown 4.0 17:44:31 10° SW 17:48:31 50° SSE 17:52:33 10° ENE
Unknown 3.4 17:44:48 10° WSW 17:48:38 86° SSE 17:52:29 10° ENE
Unknown 4.1 17:45:00 10° SW 17:49:00 49° SSE 17:53:01 10° ENE
SKYMED 2 4.2 17:45:24 10° NNE 17:49:26 36° E 17:53:26 10° SSE
Unknown 4.0 17:46:05 10° SW 17:50:06 49° SSE 17:54:07 10° ENE
FengYun 1-2 T 4.3 17:44:40 10° SSE 17:50:12 61° ENE 17:55:44 10° N
Unknown 3.5 17:47:27 10° WSW 17:51:21 81° SSE 17:55:16 10° ENE
Unknown 4.0 17:49:18 10° SW 17:53:19 50° SSE 17:57:20 10° ENE
COBE Rocket 4.1 17:50:56 10° NNE 17:56:03 56° E 18:01:04 10° S
Cosmos 1844 Rocket 2.8 17:50:58 10° S 17:56:28 54° ESE 18:01:57 10° NE
SMAP 4.2 17:52:03 10° S 17:56:34 49° W 18:01:06 10° NNW
Unknown 3.9 17:52:40 10° SW 17:56:42 54° SSE 18:00:42 10° ENE
YAOGAN 1 2.8 17:52:50 10° SE 17:56:58 46° ENE 18:01:08 10° N
Unknown 3.9 17:54:19 10° SW 17:58:23 54° SSE 18:02:18 11° ENE
YAOGAN 6 2.7 17:55:31 10° SSE 17:59:05 52° ENE 18:02:40 10° N
Unknown 3.9 17:55:59 10° SW 18:00:02 56° SSE 18:03:54 11° ENE
H-2A R/B 3.8 17:57:35 10° E 18:00:26 15° NE 18:03:20 10° NNE
Unknown 3.9 17:57:37 10° SW 18:01:41 57° SSE 18:05:30 12° ENE
Lacrosse 5 rocket 2.2 17:58:43 10° WNW 18:02:17 44° SW 18:06:01 10° SSE
Meteor 1-16 Rocket 4.5 17:57:30 10° SSE 18:02:43 43° E 18:07:49 10° NNE
Cosmos 1939 Rocket 3.8 18:00:10 10° SE 18:03:36 28° ENE 18:07:06 10° N
Unknown 3.8 18:00:53 10° SW 18:04:57 59° SSE 18:08:39 12° ENE
Unknown 3.8 18:02:36 10° SW 18:06:42 61° SSE 18:10:20 13° ENE
Cosmos 1908 4.4 18:05:07 10° SE 18:08:14 23° E 18:11:20 10° NE
Unknown 3.8 18:04:15 10° SW 18:08:21 62° SSE 18:11:55 13° ENE
Unknown 3.8 18:05:51 10° SW 18:09:56 62° SSE 18:13:26 14° ENE
Cosmos 1726 Rocket 3.6 18:05:39 10° S 18:09:57 58° E 18:14:16 10° NNE
Unknown 3.7 18:06:20 10° SW 18:10:26 63° SSE 18:13:55 14° ENE
ATLAS CENTAUR R/B 3.9 18:08:35 10° NW 18:11:37 16° N 18:14:33 10° NNE
Unknown 3.7 18:09:01 10° SW 18:13:07 62° SSE 18:16:29 15° ENE
Shenzhou-11 Module 4.2 18:12:22 10° SSW 18:13:49 13° S 18:15:16 10° SE
Cosmos 1470 3.6 18:10:30 10° SSW 18:14:25 55° WNW 18:18:21 10° N
Cosmos 1328 3.9 18:10:58 10° N 18:14:54 54° ENE 18:18:47 10° SSE
Cosmos 2278 Rocket 3.3 18:11:20 10° SSE 18:15:34 22° E 18:19:48 10° NE
CZ-4C R/B 4.1 18:08:51 10° NW 18:15:39 47° WSW 18:23:19 10° S
Unknown 3.7 18:12:22 10° SW 18:16:28 64° SSE 18:19:43 16° ENE
Unknown 3.7 18:13:58 10° SW 18:18:04 66° SSE 18:21:15 16° ENE
Cosmos 1844 3.7 18:13:37 10° SSW 18:19:15 64° ESE 18:24:59 10° NE
Cosmos 2228 3.0 18:14:57 10° S 18:19:20 76° E 18:23:42 10° NNE
Unknown 3.6 18:15:52 10° WSW 18:20:00 70° SSE 18:23:07 17° ENE
Unknown 3.7 18:17:16 10° WSW 18:21:23 68° SSE 18:24:27 17° ENE
Okean-O 4.2 18:17:18 10° SSW 18:21:28 40° W 18:25:41 10° NNW
Cosmos 2058 Rocket 3.1 18:18:21 10° S 18:22:35 52° E 18:26:50 10° NNE
Unknown 3.6 18:18:57 10° WSW 18:23:04 69° SSE 18:26:04 18° ENE
CZ-4 R/B 1.6 18:20:16 10° S 18:24:26 78° WSW 18:28:42 10° NNW
ATLAS 5 CENTAUR R/B 1.7 18:20:16 10° SW 18:24:37 81° NW 18:29:35 10° NE
Envisat 3.6 18:21:16 10° S 18:26:18 61° W 18:31:21 10° NNW
Unknown 3.6 18:22:16 10° WSW 18:26:24 72° SSE 18:29:16 19° ENE
Unknown 3.6 18:23:57 10° WSW 18:28:06 73° SSE 18:30:54 20° ENE
Unknown 3.6 18:25:37 10° WSW 18:29:45 74° SSE 18:32:29 21° ENE
Cosmos 921 Rocket 3.0 18:25:42 10° S 18:30:09 64° ESE 18:34:36 10° NNE
Unknown 3.6 18:27:17 10° WSW 18:31:25 75° SSE 18:34:06 21° ENE
Cosmos 1605 Rocket 3.9 18:26:13 10° N 18:32:25 64° ENE 18:38:30 10° SSE
FREGAT/IRIS 4.4 18:34:04 16° NE 18:34:04 16° NE 18:35:10 10° NNE
Unknown 3.6 18:30:35 10° WSW 18:34:44 78° SSE 18:37:16 23° ENE
Unknown 2.9 18:32:11 10° WNW 18:35:18 77° SSW 18:36:51 27° ESE
Unknown 3.6 18:32:09 10° WSW 18:36:17 80° SSE 18:38:47 23° ENE
Cosmos 1356 3.4 18:32:56 10° S 18:36:18 56° E 18:39:42 10° NNE
Unknown 3.6 18:32:31 10° WSW 18:36:40 84° SSE 18:39:10 23° ENE
Cosmos 2084 3.5 18:32:42 10° SW 18:37:14 81° SE 18:41:04 14° NE
ADEOS Rocket 4.4 18:31:34 10° NNE 18:37:37 24° E 18:43:24 10° SE
COSMO-SKYMED 1 2.7 18:33:18 10° NNE 18:37:41 81° WNW 18:42:01 10° SSW
Unknown 3.6 18:34:08 10° WSW 18:38:17 84° SSE 18:40:44 24° ENE
FALCON 9 DEB 3.2 18:34:55 10° WNW 18:38:23 66° N 18:39:59 29° E
Unknown 3.5 18:37:09 10° WSW 18:41:17 82° SSE 18:43:35 26° ENE
CSL-04 Rocket 4.0 18:35:50 10° S 18:41:22 73° WSW 18:46:53 10° NNW
USA 116 3.0 18:39:39 10° NNE 18:42:46 75° ESE 18:46:00 10° S
Cosmos 2263 Rocket 4.1 18:38:10 10° W 18:42:54 27° NW 18:47:39 10° NNE
Cosmos 1727 Rocket 4.3 18:37:21 10° SSE 18:43:02 41° E 18:48:44 10° NNE
Unknown 3.3 18:39:40 10° WNW 18:43:11 66° N 18:44:38 32° E
ASTEX 1 3.7 18:39:20 10° N 18:44:16 73° W 18:49:13 10° SSW
Unknown 3.5 18:40:30 10° WSW 18:44:39 85° SSE 18:46:48 27° ENE
Resurs 01 Rocket 3.6 18:45:24 14° NE 18:45:24 14° NE 18:47:08 10° NNE
Cosmos 1934 Rocket 4.2 18:38:45 10° NNW 18:45:04 76° W 18:51:25 10° S
Unknown 3.5 18:42:13 10° WSW 18:46:23 86° SSE 18:48:29 28° ENE
NOAA 11 4.1 18:41:21 10° SSE 18:46:47 79° ENE 18:52:15 10° NNW
Unknown 3.1 18:43:37 10° WNW 18:47:02 72° NNE 18:48:13 37° E
SJ 16-02 3.2 18:44:51 10° N 18:47:27 15° NE 18:47:27 15° NE
Unknown 3.5 18:43:49 10° WSW 18:47:58 87° SSE 18:50:00 29° ENE
Unknown 3.5 18:45:33 10° WSW 18:49:42 88° SSE 18:51:40 30° ENE
CZ-2D R/B 3.2 18:46:19 10° SSE 18:50:09 89° E 18:54:04 10° NNW
Unknown 3.5 18:46:46 10° WSW 18:50:53 87° N 18:52:46 31° ENE
SL-4 R/B 4.4 18:50:18 10° W 18:52:35 15° SW 18:54:47 10° S
Cosmos 2173 Rocket 4.4 18:47:36 10° N 18:53:29 39° ENE 18:56:56 22° SE
Cosmos 1726 2.1 18:50:31 10° SSW 18:54:10 80° W 18:57:50 10° N
Cosmos 2058 3.7 18:50:57 10° N 18:54:44 30° ENE 18:54:47 30° ENE
Cosmos 1833 Rocket 2.6 18:50:11 10° NNW 18:55:49 71° ENE 18:59:52 19° SE
Unknown 3.5 18:52:09 10° WSW 18:56:18 88° NNW 18:58:00 35° ENE
BREEZE M DEB (TANK) 3.4 18:54:56 10° W 18:57:16 33° SSW 18:59:45 19° SE
Unknown 3.5 18:53:50 10° WSW 18:58:00 87° N 18:59:38 36° ENE
ARGOS 3.9 18:57:06 28° E 18:58:38 33° ENE 19:03:27 10° N
Falcon 9 debris 3.1 18:55:45 10° WNW 18:59:13 76° NNE 18:59:57 52° E
Unknown 3.6 18:55:17 10° W 18:59:20 77° NNW 19:00:51 37° ENE
Unknown 3.5 18:55:30 10° WSW 18:59:40 86° NNW 19:01:14 37° ENE
Unknown 3.6 18:57:05 10° WSW 19:01:14 85° NNW 19:02:44 39° ENE
Cosmos 1242 Rocket 4.1 18:58:13 10° NNW 19:01:41 38° W 19:05:07 10° SSW
Unknown 4.4 19:00:03 10° W 19:02:15 23° SW 19:02:49 21° SSW
Unknown 3.6 18:58:48 10° WSW 19:02:58 84° NNW 19:04:24 40° ENE
Gbstr 26 Del rocket 4.1 18:58:17 10° WNW 19:04:23 79° SSW 19:08:27 28° ESE
Cosmos 1703 4.2 19:01:32 10° NNW 19:05:22 49° W 19:09:10 10° S
Unknown 3.6 19:02:11 10° WSW 19:06:20 83° NNW 19:07:38 43° ENE
Unknown 3.1 19:02:57 10° WNW 19:06:29 76° NNE 19:06:59 61° ENE
Starlink (trailer) 3.6 19:03:51 10° WSW 19:08:01 82° NNW 19:09:14 45° ENE
Ariane Rocket 3.1 19:03:42 10° SSE 19:08:48 81° WSW 19:13:57 10° NNW
Unknown 3.6 19:05:30 10° WSW 19:09:39 81° NNW 19:10:49 46° ENE
USA 238 DEB 4.2 19:03:51 10° S 19:09:45 34° ESE 19:11:09 31° E
USA 238 4.2 19:03:59 10° S 19:09:53 34° ESE 19:11:10 31° E
Unknown 3.6 19:07:06 10° WSW 19:11:16 80° NNW 19:12:22 48° ENE
Cosmos 2100 Rocket 4.0 19:06:44 10° N 19:12:52 55° ENE 19:16:25 25° SE
SJ-6B 3.3 19:14:19 40° NE 19:14:19 40° NE 19:17:18 10° N
Cosmos 967 Rocket 4.5 19:07:17 10° NW 19:13:46 74° NE 19:17:00 32° SE
Cosmos 2082 Rocket 2.1 19:10:01 10° NNW 19:15:45 71° ENE 19:18:18 34° SE
COSMOS 2406 4.3 19:11:36 10° NW 19:17:06 46° WSW 19:22:32 10° S
Unknown 3.6 19:13:40 10° W 19:17:49 77° NNW 19:18:39 55° ENE
Unknown 3.6 19:13:49 10° W 19:17:58 77° NNW 19:18:48 55° ENE
Unknown 3.6 19:14:32 10° W 19:18:42 77° N 19:19:30 56° ENE
Unknown 3.4 19:15:15 10° WNW 19:18:59 65° N 19:19:16 62° NE
SPOT 3 Rocket 3.6 19:19:14 41° ESE 19:20:46 57° ENE 19:25:53 10° N
Cosmos 292 Rocket 3.9 19:17:51 10° SSW 19:22:36 73° WNW 19:27:23 10° NNE
Lacrosse 5 1.8 19:17:31 10° WNW 19:22:37 85° NNE 19:23:56 51° ESE
Unknown 3.6 19:18:32 10° W 19:22:41 75° N 19:23:19 60° NE
Unknown 3.6 19:18:49 10° W 19:22:58 75° NNW 19:23:35 61° NE
Cosmos 1812 Rocket 3.4 19:19:56 10° S 19:24:19 68° E 19:28:46 10° NNE
Unknown 3.6 19:20:35 10° W 19:24:44 74° N 19:25:17 62° NE
Cosmos 1153 Rocket 4.5 19:19:28 10° N 19:25:39 83° W 19:31:47 10° S
Cosmos 1937 Rocket 4.2 19:21:40 10° NNW 19:26:12 34° NE 19:26:12 34° NE
Unknown 3.5 19:23:22 10° W 19:27:11 64° N 19:27:16 64° N
Cosmos 1461 2.9 19:23:31 10° NW 19:27:35 75° SW 19:28:13 60° S
Unknown 3.6 19:23:54 10° W 19:28:03 73° N 19:28:28 66° NE
Unknown 3.6 19:24:22 10° W 19:28:32 73° N 19:28:54 67° NE
Unknown 3.6 19:25:29 10° W 19:29:38 73° N 19:29:59 68° NNE
Unknown 3.6 19:26:15 10° W 19:30:08 65° N 19:30:11 65° N
HJ-1C 4.3 19:29:04 30° SSW 19:30:19 47° W 19:33:37 10° NNW
Cosmos 2084 Rocket 3.5 19:26:52 10° NW 19:31:17 62° NE 19:31:23 62° NE
Unknown 3.6 19:28:42 10° W 19:32:51 73° N 19:33:04 71° NNE
MOS 1 4.4 19:28:54 13° S 19:34:01 77° WSW 19:39:43 10° NNW
Cosmos 990 Rocket 4.3 19:30:21 10° NNW 19:35:19 47° NE 19:35:19 47° NE
NOSS 3-2 (A) 4.3 19:30:43 10° S 19:33:54 29° SSE 19:33:54 29° SSE
Unknown 3.6 19:32:08 10° W 19:36:16 71° N 19:36:21 71° N
Cosmos 2016 Rocket 4.1 19:30:58 10° N 19:37:07 55° ENE 19:38:11 49° ESE
Unknown 3.7 19:33:48 10° W 19:37:57 71° N 19:37:57 71° N
Cosmos 1076 Rocket 3.6 19:33:41 10° NNW 19:38:04 78° W 19:39:05 52° S
H-2A R/B 2.0 19:38:01 57° ESE 19:38:54 68° ENE 19:44:17 10° N
NOSS 3-3 (A) 4.4 19:31:45 10° NW 19:39:08 89° NE 19:42:40 38° SE
NOSS 3-3 (C) 4.4 19:31:51 10° NW 19:39:14 89° NE 19:42:44 38° SE
Unknown 3.7 19:35:28 10° W 19:39:33 70° NNW 19:39:33 70° NNW
Cosmos 1844 Rocket 4.2 19:35:29 10° WSW 19:40:38 35° NW 19:45:47 10° NNE
Unknown 3.7 19:37:08 10° W 19:41:09 69° NNW 19:41:09 69° NNW
In-Cosmos 22 Rocket 3.9 19:39:05 10° N 19:44:28 76° ENE 19:45:16 63° SE
Unknown 3.8 19:40:26 10° W 19:44:18 66° NW 19:44:18 66° NW
Unknown 3.9 19:42:11 10° W 19:45:59 65° NW 19:45:59 65° NW
Unknown 3.9 19:43:50 10° W 19:47:34 63° NW 19:47:34 63° NW
Cosmos 2061 Rocket 3.9 19:42:10 10° N 19:48:26 68° ENE 19:49:35 57° SE
Unknown 4.0 19:45:26 10° W 19:49:05 61° NW 19:49:05 61° NW
Unknown 4.0 19:45:56 10° W 19:49:34 61° NW 19:49:34 61° NW
ATLAS CENTAUR R/B 3.6 19:48:59 10° NNW 19:52:13 18° NNE 19:52:13 18° NNE
Unknown 4.1 19:48:36 10° W 19:52:08 58° WNW 19:52:08 58° WNW
Unknown 4.3 19:51:59 10° W 19:55:22 54° WNW 19:55:22 54° WNW
Unknown 4.3 19:53:35 10° W 19:56:54 52° WNW 19:56:54 52° WNW
Cosmos 2278 Rocket 2.3 19:53:23 10° SW 19:59:03 75° WNW 20:04:37 11° NNE
Unknown 4.4 19:55:32 10° W 19:58:46 50° WNW 19:58:46 50° WNW
Unknown 4.5 19:56:55 10° W 20:00:06 48° WNW 20:00:06 48° WNW
MetOp-A 4.3 20:02:37 57° NNE 20:02:37 57° NNE 20:07:10 10° N
CZ-2C R/B 3.2 20:02:00 70° ENE 20:02:00 70° ENE 20:07:41 10° N
Cosmos 1898 Rocket 3.6 20:03:43 10° NNW 20:08:28 72° NNW 20:08:28 72° NNW
ATLAS 5 CENTAUR R/B 3.6 20:06:04 10° WNW 20:10:02 27° NNW 20:11:49 22° NNE
Cosmos 1459 Rocket 4.4 20:10:51 10° NNW 20:16:55 61° W 20:19:38 34° SSW
Resurs 01 Rocket 3.3 20:22:59 28° NNW 20:22:59 28° NNW 20:25:08 10° NNW
ADEOS Rocket 3.4 20:16:13 10° NNE 20:24:04 89° WNW 20:31:28 10° SSW
SJ 16-02 3.1 20:22:21 10° NNW 20:24:27 28° NNW 20:24:27 28° NNW
Terra 4.5 20:34:30 10° NNE 20:34:30 10° NNE 20:34:34 10° NNE
ARGOS 3.9 20:38:37 47° WSW 20:38:45 47° W 20:44:00 10° NNW
Cosmos 2082 Rocket 4.0 20:54:54 10° NW 20:59:18 23° WSW 21:00:11 23° WSW
USA 238 DEB 4.1 20:53:31 10° SW 20:58:40 54° WSW 20:58:40 54° WSW
USA 238 4.2 20:53:38 10° SW 20:58:42 53° WSW 20:58:42 53° WSW
Lacrosse 5 4.0 21:00:56 10° WNW 21:03:08 21° W 21:03:08 21° W
H-2A R/B 4.1 21:18:39 22° W 21:18:50 22° W 21:22:57 10° NW
Cosmos 2278 Rocket 4.4 21:39:53 10° W 21:44:08 21° NW 21:46:33 17° N
